Orbital Elements at Epoch 2459200.5 (2020-Dec-17.0) TDB
Reference: JPL 24 (heliocentric ecliptic J2000)
Element | Value | Uncertainty (1-sigma) | Units |
e | .289226836304989 | 7.0457e-08 | |
a | 2.576239707186605 | 1.538e-08 | au |
q | 1.831122047113731 | 1.8597e-07 | au |
i | 13.39844037893684 | 5.3884e-06 | deg |
node | 20.35060907343431 | 2.2287e-05 | deg |
peri | 29.98283100541783 | 2.4756e-05 | deg |
M | 99.04623427224085 | 7.2466e-06 | deg |
tp | 2458784.959556510480 (2019-Oct-28.45955651) | 3.1112e-05 | TDB |
period | 1510.350804908423 4.14 | 1.3525e-05 3.703e-08 | d yr |
n | .2383552210718541 | 2.1345e-09 | deg/d |
Q | 3.321357367259477 | 1.9829e-08 | au |
|
| | Orbit Determination Parameters
Additional Information
|